Regional Weather Roundup
Issued by NWS

Home | Current Version | Previous Version | Text Only | Print | Product List | Glossary Off
Versions: 1 2 3 4 5 6 7 8 9 10 11 12 13 14 15 16 17 18 19 20 21 22 23 24 25 26 27 28 29 30 31 32 33 34 35 36 37 38 39 40 41 42 43 44 45 46 47 48 49 50

229
ASUS44 KJAN 280703
RWRMS

MISSISSIPPI HOURLY WEATHER ROUNDUP
NATIONAL WEATHER SERVICE JACKSON MS
200 AM CDT MON JUL 28 2014

NOTE: "FAIR: INDICATES FEW OR NO CLOUDS BELOW 12,000 FEET WITH NO
SIGNIFICANT WEATHER AND/OR OBSTRUCTIONS TO VISIBILITY.

MSZ001>002-007>008-010>013-018>021-025>028-034>036-280800-
NORTHWEST MISSISSIPPI

CITY           SKY/WX    TMP DP  RH WIND       PRES   REMARKS
CLARKSDALE     FAIR      79  79 100 CALM      29.97S
CLEVELAND      PTSUNNY   79  78  95 W3        29.97R
GREENWOOD      PTCLDY    78  76  93 S5        29.97S
GREENVILLE     MOCLDY    82  74  76 W5        29.97S
GRENADA        FAIR      79  73  83 W3        29.96F
OLIVE BRANCH   CLEAR     81  79  94 N8        29.96S
OXFORD         FAIR      79  75  89 W3        29.98S
TUNICA         MOSUNNY   81  77  89 NW8       29.97R
$$

MSZ003>006-009-014>017-022>024-029>033-037>039-280800-
NORTHEAST MISSISSIPPI

CITY           SKY/WX    TMP DP  RH WIND       PRES   REMARKS
BELMONT        PTSUNNY   78  76  95 CALM      29.95F
COLUMBUS AFB   PTCLDY    79  75  86 SW7       29.95F
CORINTH        FAIR      79  75  89 W6        29.94S
GOLDN TRIANGLE CLEAR     81  72  74 W3        29.96F
STARKVILLE     PTSUNNY   79  73  83 SW3       29.96F
TUPELO         CLEAR     81  76  84 W5        29.94F
$$

MSZ040-058-280800-
CENTRAL MISSISSIPPI

CITY           SKY/WX    TMP DP  RH WIND       PRES   REMARKS
JACKSON INTL   CLEAR     78  75  90 SW3       30.00S
JACKSON HAWKNS CLEAR     81  73  76 SW7       30.00F
MERIDIAN KEY   CLEAR     76  73  91 S3        29.99F
MERIDIAN NAS   CLEAR     78  73  84 W6        29.98F
RAYMOND        FAIR      77  72  83 CALM      30.00S
VICKSBURG      CLEAR     75  73  93 CALM      30.00S
$$

MSZ059>079-280800-
SOUTH MISSISSIPPI

CITY           SKY/WX    TMP DP  RH WIND       PRES   REMARKS
BROOKHAVEN     FAIR      79  75  89 CALM      30.03F
COLUMBIA       FAIR      77  75  94 CALM      30.01S
HATTIESBURG    CLEAR     81  75  82 SW6       30.01F
MCCOMB         CLEAR     79  75  87 SW6       30.03F
NATCHEZ        CLEAR     79  73  83 SW6       30.03S
PINE BELT      CLEAR     79  73  83 SW5       30.02F
$$

MSZ080>082-280800-
COASTAL MISSISSIPPI

CITY           SKY/WX    TMP DP  RH WIND       PRES   REMARKS
BILOXI         CLEAR     82  77  83 W7        30.01F HX  90
PASCAGOULA     CLEAR     81  78  91 W3        30.01F
GULFPORT       CLEAR     84  77  79 W7        30.01F HX  94
$$



USA.gov is the U.S. government's official web portal to all federal, state and local government web resources and services.